Stations météo

Publicité
Cannes, France (7684): Température de l'air & dewpoint: 20.05.2018 23:00:00 - 26.05.2018 23:00:00 (CEST)Cannes, France (7684): Température de l'air 5cm: 20.05.2018 23:00:00 - 26.05.2018 23:00:00 (CEST)Cannes, France (7684): Vitesse du vent & gusts: 20.05.2018 23:00:00 - 26.05.2018 23:00:00 (CEST)Cannes, France (7684): Direction du vent: 20.05.2018 23:00:00 - 26.05.2018 23:00:00 (CEST)Cannes, France (7684): reduced air pressure: 20.05.2018 23:00:00 - 26.05.2018 23:00:00 (CEST)Cannes, France (7684): visibility: 20.05.2018 23:00:00 - 26.05.2018 23:00:00 (CEST)Cannes, France (7684): Quantités de précipitations: 20.05.2018 23:00:00 - 26.05.2018 23:00:00 (CEST)
Date & Time tt [°C] td [°C] tt 5cm [°C] ff [km/h] ff [knt] fx [km/h] fx [knt] dd ppp [hPa] vv [km] rr [mm]
26.05.2018 23:00:00 19,8 15,4 16,8 3 1 11 6 N 1018,4 34 0,0
26.05.2018 22:00:00 21,1 15,4 17,8 5 3 7 4 N 1018,5 36 0,0
26.05.2018 21:00:00 22,1 14,7 19,4 0 0 6 4 N 1017,9 16 0,0
26.05.2018 20:00:00 23,0 15,1 22,6 4 2 10 5 S 1018,0 58 0,0
26.05.2018 19:00:00 25,9 14,4 27,4 3 2 8 4 S 1017,6 60 0,0
26.05.2018 18:00:00 24,4 14,2 26,1 7 4 18 10 S 1018,0 60 0,0
26.05.2018 17:00:00 24,4 15,6 26,1 13 7 23 12 S 1018,3 52 0,0
26.05.2018 16:00:00 28,5 12,8 33,0 10 5 21 11 SE 1017,7 20 0,0
26.05.2018 15:00:00 25,8 14,0 32,6 15 8 21 11 S 1018,4 17 0,0
26.05.2018 14:00:00 26,6 15,0 33,8 14 8 21 11 SSE 1018,6 40 0,0
26.05.2018 13:00:00 25,1 14,5 31,9 10 6 21 11 S 1018,9 20 0,0
26.05.2018 12:00:00 26,0 14,8 30,2 10 5 16 9 S 1019,0 60 0,0
26.05.2018 11:00:00 25,3 15,0 28,6 7 4 14 7 SSE 1019,2 20 0,0
26.05.2018 10:00:00 24,0 15,5 23,8 5 3 9 5 S 1019,2 19 0,0
26.05.2018 09:00:00 21,3 15,8 20,1 3 2 7 4 N 1019,3 31 0,0
26.05.2018 08:00:00 18,8 14,9 15,5 5 3 13 7 N 1019,4 20 0,0
26.05.2018 07:00:00 15,8 14,0 14,2 4 2 13 7 NNW 1018,4 19 0,0
26.05.2018 06:00:00 15,2 13,7 13,9 5 3 14 8 N 1017,6 18 0,0
26.05.2018 05:00:00 15,4 13,9 14,1 6 3 10 5 N 1017,2 15 0,0
26.05.2018 04:00:00 15,9 14,4 14,6 5 3 10 6 N 1017,3 16 0,0
26.05.2018 03:00:00 16,1 14,6 14,8 5 3 9 5 N 1017,5 15 0,0
26.05.2018 02:00:00 16,5 15,0 15,1 4 2 7 4 N 1017,7 12 0,0
26.05.2018 01:00:00 17,1 15,3 15,1 3 2 6 3 NNE 1017,8 13 0,0
26.05.2018 00:00:00 17,6 15,6 15,3 4 2 9 5 N 1017,5 10 0,0
25.05.2018 23:00:00 18,2 14,7 15,0 2 1 4 2 N 1017,1 18 0,0
25.05.2018 22:00:00 19,2 14,9 15,9 2 1 4 2 N 1016,3 25 0,0
25.05.2018 21:00:00 19,4 16,1 17,4 0 0 7 4 N 1015,7 20 0,0
25.05.2018 20:00:00 21,5 16,0 21,5 2 1 10 5 WSW 1015,8 28 0,0
25.05.2018 19:00:00 21,6 15,7 24,7 6 3 19 10 SSE 1015,8 39 0,0
25.05.2018 18:00:00 22,0 16,5 26,7 11 6 20 11 SSE 1016,1 20 0,0
25.05.2018 17:00:00 22,3 15,9 29,9 13 7 19 10 SSE 1016,2 29 0,0
25.05.2018 16:00:00 22,9 16,2 34,0 11 6 18 10 S 1016,4 28 0,0
25.05.2018 15:00:00 22,5 16,3 33,8 10 5 19 10 SSE 1016,6 19 0,0
25.05.2018 14:00:00 22,8 16,3 32,9 11 6 21 12 SSE 1016,9 20 0,0
25.05.2018 13:00:00 22,3 15,9 29,9 11 6 21 11 S 1016,9 19 0,0
25.05.2018 12:00:00 22,0 15,8 28,9 13 7 21 11 S 1017,0 33 0,0
25.05.2018 11:00:00 22,0 15,4 27,6 9 5 16 9 SSE 1017,0 19 0,0
25.05.2018 10:00:00 22,1 15,2 21,2 6 4 11 6 SE 1017,1 20 0,0
25.05.2018 09:00:00 19,8 15,2 20,0 4 2 8 4 NNW 1017,3 19 0,0
25.05.2018 08:00:00 18,5 15,0 17,0 5 3 11 6 NNW 1017,1 16 0,0
25.05.2018 07:00:00 17,2 15,0 16,6 6 3 11 6 N 1016,8 12 0,0
25.05.2018 06:00:00 17,2 15,2 16,6 6 3 10 5 N 1016,8 11 0,0
25.05.2018 05:00:00 17,3 15,5 16,4 3 2 7 4 N 1016,6 10 0,0
25.05.2018 04:00:00 16,9 15,4 16,0 5 3 10 6 NNE 1016,8 9 0,0
25.05.2018 03:00:00 16,3 15,0 14,8 5 3 9 5 N 1017,2 10 0,0
25.05.2018 02:00:00 15,9 14,8 14,4 5 3 10 6 NNE 1017,2 9 0,0
25.05.2018 01:00:00 16,2 15,1 14,4 4 2 7 4 N 1017,1 9 0,0
25.05.2018 00:00:00 16,5 15,2 13,8 3 2 5 3 N 1017,1 10 0,0
24.05.2018 23:00:00 17,1 14,7 14,6 0 0 5 3 N 1017,1 12 0,0
24.05.2018 22:00:00 17,9 15,2 15,6 3 2 8 4 N 1016,9 16 0,0
24.05.2018 21:00:00 19,1 15,2 17,2 5 3 14 8 SSE 1016,7 24 0,0
24.05.2018 20:00:00 20,2 14,8 20,2 8 5 18 10 SSE 1016,5 27 0,0
24.05.2018 19:00:00 21,2 14,8 23,5 11 6 19 10 SE 1016,4 46 0,0
24.05.2018 18:00:00 21,9 15,0 26,5 9 5 22 12 SE 1016,7 39 0,0
24.05.2018 17:00:00 21,9 15,5 28,9 12 7 22 12 SE 1016,6 17 0,0
24.05.2018 16:00:00 22,4 16,0 31,6 10 6 24 13 ESE 1017,0 19 0,0
24.05.2018 15:00:00 22,1 16,1 25,9 14 8 24 13 SE 1017,3 20 0,0
24.05.2018 14:00:00 21,6 16,8 26,2 15 8 25 14 SE 1017,8 19 0,0
24.05.2018 13:00:00 21,8 13,9 28,6 16 9 24 13 SSE 1018,3 49 0,0
24.05.2018 12:00:00 21,8 12,9 27,9 11 6 19 11 SSE 1018,7 49 0,0
24.05.2018 11:00:00 21,0 14,2 25,6 10 5 16 9 SSE 1018,6 46 0,0
24.05.2018 10:00:00 20,9 13,3 21,8 7 4 13 7 S 1018,5 41 0,0
24.05.2018 09:00:00 19,1 13,5 16,3 2 1 14 8 N 1018,3 56 0,0
24.05.2018 08:00:00 16,0 12,5 13,3 8 4 16 8 N 1017,9 60 0,0
24.05.2018 07:00:00 13,8 11,7 11,8 7 4 14 8 NNE 1017,6 60 0,0
24.05.2018 06:00:00 12,8 11,5 11,7 6 3 11 6 N 1017,4 60 0,0
24.05.2018 05:00:00 12,9 12,0 11,8 5 3 13 7 N 1017,5 60 0,0
24.05.2018 04:00:00 13,1 12,0 12,1 8 4 13 7 N 1017,6 60 0,0
24.05.2018 03:00:00 13,5 12,6 12,5 8 4 14 7 N 1017,7 54 0,2
24.05.2018 02:00:00 14,1 13,1 12,8 7 4 13 7 N 1018,1 52 0,0
24.05.2018 01:00:00 14,7 13,7 13,3 6 4 13 7 N 1018,2 57 0,0
24.05.2018 00:00:00 15,0 14,0 13,2 4 2 8 4 N 1018,2 30 0,0
23.05.2018 23:00:00 15,7 14,7 13,7 4 2 7 4 N 1017,8 27 0,0
23.05.2018 22:00:00 16,5 15,2 13,8 3 1 6 3 NNW 1017,4 19 0,0
23.05.2018 21:00:00 18,0 16,7 16,1 2 1 13 7 N 1016,7 15 0,0
23.05.2018 20:00:00 19,3 16,5 18,7 10 5 16 9 SSW 1017,1 34 0,0
23.05.2018 19:00:00 19,1 16,9 18,4 3 2 11 6 N 1017,0 19 0,2
23.05.2018 18:00:00 19,0 16,2 18,3 8 4 19 10 NNW 1017,1 12 1,0
23.05.2018 17:00:00 19,5 17,1 19,2 9 5 15 8 N 1017,1 17 0,2
23.05.2018 16:00:00 21,8 14,9 23,4 16 8 30 16 S 1017,0 55 0,0
23.05.2018 15:00:00 23,2 15,3 27,8 23 12 32 18 S 1016,8 35 0,0
23.05.2018 14:00:00 23,2 14,7 28,0 18 10 28 15 S 1016,8 43 0,0
23.05.2018 13:00:00 21,5 15,1 27,7 22 12 30 16 S 1017,0 52 0,0
23.05.2018 12:00:00 21,6 15,2 26,8 13 7 19 10 S 1016,9 60 0,0
23.05.2018 11:00:00 20,6 13,3 24,3 11 6 16 9 SSE 1017,0 60 0,0
23.05.2018 10:00:00 21,1 14,0 21,0 2 1 6 3 W 1016,8 49 0,0
23.05.2018 09:00:00 18,3 13,6 15,4 4 2 9 5 NNE 1016,8 60 0,0
23.05.2018 08:00:00 14,9 13,3 13,3 5 3 10 5 N 1016,6 60 0,0
23.05.2018 07:00:00 13,7 13,1 12,2 5 3 10 5 N 1016,2 20 0,0
23.05.2018 06:00:00 13,8 13,0 12,5 4 2 9 5 N 1015,7 33 0,0
23.05.2018 05:00:00 14,5 13,5 13,1 3 2 9 5 N 1015,9 34 0,0
23.05.2018 04:00:00 14,9 13,9 14,3 4 2 9 5 N 1015,9 46 0,0
23.05.2018 03:00:00 14,9 13,9 13,9 4 2 8 4 N 1016,0 49 0,0
23.05.2018 02:00:00 14,7 13,9 13,1 3 2 7 4 N 1016,1 35 0,0
23.05.2018 01:00:00 15,4 14,3 13,8 4 2 8 4 N 1016,2 37 0,0
23.05.2018 00:00:00 16,1 15,0 14,8 3 1 7 4 NNW 1016,1 33 0,0
22.05.2018 23:00:00 16,6 15,6 15,6 0 0 5 3 N 1015,8 19 0,0
22.05.2018 22:00:00 16,7 15,2 15,6 2 1 5 3 W 1015,5 20 0,0
22.05.2018 21:00:00 17,1 14,6 15,4 0 0 7 4 N 1014,8 19 0,0
22.05.2018 20:00:00 17,9 14,8 16,8 4 2 9 5 WSW 1014,6 54 0,0
22.05.2018 19:00:00 19,0 13,8 19,2 4 2 7 4 SSW 1014,3 57 0,0
22.05.2018 18:00:00 18,4 15,6 17,1 6 3 13 7 WSW 1014,2 42 3,0
22.05.2018 17:00:00 20,4 14,5 22,1 3 1 7 4 NNW 1014,0 46 0,0
22.05.2018 16:00:00 19,7 14,5 19,1 2 1 10 5 NW 1014,2 54 0,0
22.05.2018 15:00:00 18,7 13,5 19,3 5 3 10 6 S 1014,3 22 0,2
22.05.2018 14:00:00 20,1 14,5 21,2 3 2 10 5 S 1014,0 57 0,2
22.05.2018 13:00:00 18,7 14,6 19,3 3 2 6 4 W 1014,0 46 0,0
22.05.2018 12:00:00 17,3 15,5 17,2 2 1 9 5 N 1013,8 13 1,2
22.05.2018 11:00:00 16,9 15,8 17,1 5 3 10 5 N 1013,7 13 0,6
22.05.2018 10:00:00 16,6 15,8 16,7 5 3 9 5 N 1013,4 9 1,2
22.05.2018 09:00:00 16,3 15,7 16,2 4 2 8 5 N 1013,1 8 0,8
22.05.2018 08:00:00 16,0 15,4 15,8 4 2 9 5 N 1012,7 9 0,8
22.05.2018 07:00:00 15,9 15,3 15,6 5 3 10 5 N 1012,2 9 0,2
22.05.2018 06:00:00 16,0 15,5 15,7 5 3 8 4 N 1011,8 11 0,0
22.05.2018 05:00:00 16,2 15,6 15,9 2 1 4 2 N 1011,8 10 0,0
22.05.2018 04:00:00 16,4 15,8 16,0 0 0 4 2 N 1012,1 12 0,4
22.05.2018 03:00:00 16,3 15,7 16,1 0 0 7 4 N 1012,3 6 1,4
22.05.2018 02:00:00 16,4 15,8 16,1 5 3 10 5 N 1012,6 8 1,2
22.05.2018 01:00:00 16,3 15,7 15,9 6 3 10 5 N 1012,8 7 1,2
22.05.2018 00:00:00 16,3 15,5 15,8 4 2 10 5 N 1012,9 9 0,6
21.05.2018 23:00:00 16,2 15,1 15,6 5 3 19 10 N 1013,0 18 5,5
21.05.2018 22:00:00 16,9 15,1 16,1 11 6 25 14 NE 1012,5 1,8 16,1
21.05.2018 21:00:00 19,6 13,5 17,7 9 5 16 9 S 1011,3 42 0,0
21.05.2018 20:00:00 21,1 12,0 19,8 2 1 13 7 NE 1011,6 58 0,0
21.05.2018 19:00:00 21,6 12,4 22,5 6 3 18 10 S 1011,5 58 0,0
21.05.2018 18:00:00 22,6 11,3 23,6 8 4 19 10 S 1011,3 60 0,0
21.05.2018 17:00:00 23,3 11,0 24,8 7 4 16 9 S 1011,0 19 0,0
21.05.2018 16:00:00 24,3 11,6 26,6 8 5 20 11 SSW 1011,3 44 0,0
21.05.2018 15:00:00 23,9 10,2 26,5 10 5 24 13 SSE 1011,6 60 0,0
21.05.2018 14:00:00 24,1 10,0 26,3 13 7 26 14 SE 1012,0 60 0,0
21.05.2018 13:00:00 23,6 13,5 28,2 11 6 25 14 S 1012,4 60 0,0
21.05.2018 12:00:00 23,5 13,1 26,5 10 6 22 12 S 1012,7 60 0,0
21.05.2018 11:00:00 22,9 11,9 26,1 14 8 22 12 S 1012,6 60 0,0
21.05.2018 10:00:00 24,8 10,6 24,6 3 2 7 4 N 1012,3 60 0,0
21.05.2018 09:00:00 21,3 12,2 17,4 5 3 13 7 N 1012,5 60 0,0
21.05.2018 08:00:00 16,7 10,5 14,2 7 4 14 7 N 1012,6 50 0,0
21.05.2018 07:00:00 14,3 9,9 11,8 9 5 18 10 N 1012,6 56 0,0
21.05.2018 06:00:00 13,3 9,7 11,5 10 5 16 9 N 1012,6 58 0,0
21.05.2018 05:00:00 13,5 9,9 11,5 9 5 16 9 N 1012,6 58 0,0
21.05.2018 04:00:00 13,5 10,3 11,8 6 4 16 8 N 1012,9 52 0,0
21.05.2018 03:00:00 14,2 10,6 11,8 7 4 14 7 N 1013,2 45 0,0
21.05.2018 02:00:00 14,7 10,5 12,6 8 4 13 7 N 1013,5 60 0,0
21.05.2018 01:00:00 15,3 10,7 13,0 4 2 15 8 N 1013,9 59 0,0
21.05.2018 00:00:00 16,0 11,0 13,4 8 4 15 8 N 1014,1 60 0,0
20.05.2018 23:00:00 16,5 11,2 13,1 8 5 15 8 N 1014,1 57 0,0

tt = Température de l'air
td = dewpoint
tt 5cm = Température de l'air 5cm
ff = Vitesse du vent
fx = gusts
dd = Direction du vent
ppp = reduced air pressure
vv = visibility
rr = Quantités de précipitations

stations d'obs. à proximité